Flag Weather past 2 weeks in Oakville, Ontario, Canada

Now
26 °F

Chilly.


Feels Like: 26 °F
Forecast: 25 / 41 °F
Wind: 2 mph from West

Location: Burlington Piers

Current Time: Nov 29, 2014 at 1:24:06 AM

Latest Report: Nov 29, 2014 at 1:00 AM


Visibility: N/A

Pressure: 30.19 "Hg

Humidity: 71%

Dew point: 18 °F

Location of OakvilleLocation

Historic Weather in Oakville — Graph

°F

Oakville temperature yesterday

Maximum temperature yesterday: 28 °F (at 11:00 AM)
Minimum temperature yesterday: 23 °F (at 8:00 AM)
Average temperature yesterday: 26 °F

Past Weeks' High & Low Weather Summary

 TemperatureHumidityPressure
High64 °F (Nov 24, 12:00 PM)100% (Nov 17, 4:00 AM)30.47 "Hg (Nov 17, 4:00 AM)
Low18 °F (Nov 19, 6:00 AM)45% (Nov 15, 1:00 PM)29.14 "Hg (Nov 24, 12:00 PM)
Average33 °F73%30.00 "Hg
* Reported Midnight between Nov 13 and Nov 14 — Midnight between Nov 28 and Nov 29, Oakville, Weather by CustomWeather, © 2014

Note: Actual official high and low records may vary slightly from our data, if they occured in-between our weather recording intervals... More about our weather records

Advertising

Oakville weather history for previous 24 hours

 ConditionsComfort  
Time TempWeatherWind HumidityBarometerVisibility
12:00 AM
Nov 29
26 °FChilly.2 mph65%30.21 "HgN/A
11:00 PM
Nov 28
26 °FChilly.2 mph60%30.22 "HgN/A
10:00 PM25 °FChilly.5 mph60%30.22 "HgN/A
9:00 PM26 °FChilly.5 mph61%30.21 "HgN/A
8:00 PM26 °FChilly.6 mph57%30.23 "HgN/A
7:00 PM26 °FChilly.6 mph57%30.24 "HgN/A
6:00 PM27 °FChilly.5 mph58%30.25 "HgN/A
5:00 PM26 °FChilly.6 mph58%30.24 "HgN/A
4:00 PM27 °FChilly.7 mph63%30.24 "HgN/A
3:00 PM27 °FChilly.8 mph58%30.24 "HgN/A
2:00 PM27 °FChilly.12 mph58%30.24 "HgN/A
1:00 PM27 °FChilly.9 mph57%30.25 "HgN/A
12:00 PM27 °FChilly.7 mph58%30.26 "HgN/A
11:00 AM28 °FChilly.8 mph58%30.30 "HgN/A
10:00 AM25 °FChilly.7 mph72%30.30 "HgN/A
9:00 AM24 °FCold.8 mph74%30.30 "HgN/A
8:00 AM23 °FCold.8 mph73%30.29 "HgN/A
7:00 AM23 °FCold.9 mph72%30.28 "HgN/A
6:00 AM24 °FCold.9 mph70%30.27 "HgN/A
5:00 AM24 °FCold.9 mph70%30.26 "HgN/A
4:00 AM24 °FCold.9 mph67%30.24 "HgN/A
3:00 AM25 °FCold.7 mph67%30.23 "HgN/A
2:00 AM26 °FChilly.7 mph66%30.22 "HgN/A
1:00 AM26 °FChilly.7 mph69%30.20 "HgN/A
Weather by CustomWeather, © 2014

See weather overviewHow to use our weather pages